NSIGHT

Last updated on Sun Apr 26 2020 05:05:47 GMT+0000 (Coordinated Universal Time)

1 42726U 98067MF 20116.07643009 .13690248 12613-4 18337-3 0 9995 2 42726 51.6113 128.9553 0003404 226.2479 133.8270 16.49117643167130

Satellite not in orbit

NSIGHT